Weather History for Kalamata, Greece

Change the Weather History Date:

Sunday, December 22, 2013

  Actual Average Record
Temperature  
Mean Temperature 50 °F -  
Max Temperature 62 °F 60 °F 66 °F (1996)
Min Temperature 37 °F 43 °F 33 °F (2002)
Degree Days  
Heating Degree Days 16    
Moisture  
Dew Point 36 °F    
Average Humidity 70    
Maximum Humidity 93    
Minimum Humidity 36    
Precipitation  
Precipitation 0.00 in 0.16 in - ()
Sea Level Pressure  
Sea Level Pressure 30.45 in    
Wind  
Wind Speed 3 mph ()    
Max Wind Speed 9 mph    
Max Gust Speed -    
Visibility 5.3 miles    
Events      
Averages and records for this station are not official NWS values.
T = Trace of Precipitation, MM = Missing Value Source: Averaged Metar Reports

Daily Weather History Graph

Daily Weather History Graph

Search for Another Location

Airport:

Trip Planner

Search our weather history database for the weather conditions in past years. The results will help you decide how hot, cold, wet, or windy it might be!

Date:

Astronomy

Dec. 22, 2013 Rise Set
Actual Time 7:42 AM EET 5:19 PM EET
Civil Twilight 7:13 AM EET 5:48 PM EET
Nautical Twilight 6:40 AM EET 6:20 PM EET
Astronomical Twilight 6:08 AM EET 6:52 PM EET
Moon 10:07 PM EET 10:34 AM EET
Length of Visible Light 10h 35m
Length of Day
9h 36m
Waning Gibbous, 79% of the Moon is Illuminated
Dec 22
Waning Gibbous
Dec 25
Last Quarter
Jan 1
New
Jan 8
First Quarter
Jan 16
Full

Hourly Weather History & Observations

Time (EET) Temp. Windchill Dew Point Humidity Pressure Visibility Wind Dir Wind Speed Gust Speed Precip Events Conditions
12:20 AM 41.0 °F 38.0 °F 37.4 °F 87% 30.51 in - NW 4.6 mph - N/A   Unknown
12:50 AM 39.2 °F 35.9 °F 37.4 °F 93% 30.51 in - NW 4.6 mph - N/A   Unknown
1:20 AM 39.2 °F 37.0 °F 37.4 °F 93% 30.51 in - Variable 3.5 mph - N/A   Unknown
1:50 AM 39.2 °F 35.9 °F 37.4 °F 93% 30.51 in - NNW 4.6 mph - N/A   Clear
2:20 AM 39.2 °F 37.0 °F 37.4 °F 93% 30.51 in - Variable 3.5 mph - N/A   Unknown
2:50 AM 39.2 °F 35.9 °F 35.6 °F 87% 30.51 in - NW 4.6 mph - N/A   Unknown
3:20 AM 39.2 °F 35.0 °F 35.6 °F 87% 30.51 in - NW 5.8 mph - N/A   Unknown
3:50 AM 39.2 °F 37.0 °F 35.6 °F 87% 30.51 in - Variable 3.5 mph - N/A   Unknown
4:20 AM 39.2 °F 35.9 °F 35.6 °F 87% 30.51 in - WNW 4.6 mph - N/A   Unknown
4:50 AM 39.2 °F - 33.8 °F 81% 30.51 in - Calm Calm - N/A   Clear
5:20 AM 39.2 °F - 33.8 °F 81% 30.48 in - Calm Calm - N/A   Clear
5:50 AM 37.4 °F 32.8 °F 33.8 °F 87% 30.48 in - NNW 5.8 mph - N/A   Clear
6:20 AM 37.4 °F 32.1 °F 33.8 °F 87% 30.48 in - NNW 6.9 mph - N/A   Clear
6:50 AM 39.2 °F 33.0 °F 33.8 °F 81% 30.48 in - NNW 9.2 mph - N/A   Clear
7:20 AM 37.4 °F 31.4 °F 33.8 °F 87% 30.48 in - NNW 8.1 mph - N/A   Clear
7:50 AM 37.4 °F 31.4 °F 33.8 °F 87% 30.48 in 5.6 mi NNW 8.1 mph - N/A   Unknown
8:20 AM 39.2 °F 35.0 °F 33.8 °F 81% 30.48 in 5.0 mi NNW 5.8 mph - N/A   Mist
8:50 AM 41.0 °F 38.0 °F 33.8 °F 76% 30.48 in 5.0 mi NNW 4.6 mph - N/A   Mist
9:20 AM 44.6 °F 40.7 °F 33.8 °F 66% 30.48 in 5.0 mi NNW 6.9 mph - N/A   Mist
9:50 AM 48.2 °F - 37.4 °F 66% 30.48 in 5.6 mi Calm Calm - N/A   Mist
10:20 AM 51.8 °F - 37.4 °F 58% 30.48 in 5.6 mi Calm Calm - N/A   Mist
10:50 AM 55.4 °F - 35.6 °F 47% 30.48 in 5.6 mi Calm Calm - N/A   Haze
11:20 AM 57.2 °F - 35.6 °F 44% 30.48 in - Calm Calm - N/A   Clear
11:50 AM 60.8 °F - 37.4 °F 42% 30.45 in - Calm Calm - N/A   Clear
12:20 PM 62.6 °F - 39.2 °F 42% 30.45 in - Calm Calm - N/A   Clear
12:50 PM 62.6 °F - 37.4 °F 39% 30.45 in - Calm Calm - N/A   Clear
1:20 PM 62.6 °F - 37.4 °F 39% 30.42 in - Calm Calm - N/A   Clear
1:50 PM 62.6 °F - 39.2 °F 42% 30.42 in - Calm Calm - N/A   Clear
2:20 PM 62.6 °F - 35.6 °F 37% 30.39 in - Calm Calm - N/A   Clear
2:50 PM 62.6 °F - 39.2 °F 42% 30.39 in - South 4.6 mph - N/A   Clear
3:20 PM 60.8 °F - 35.6 °F 39% 30.39 in - South 5.8 mph - N/A   Clear
3:50 PM 60.8 °F - 33.8 °F 36% 30.39 in - South 4.6 mph - N/A   Clear
4:20 PM 60.8 °F - 33.8 °F 36% 30.39 in - Calm Calm - N/A   Clear
4:50 PM 57.2 °F - 39.2 °F 51% 30.39 in - Calm Calm - N/A   Clear
5:20 PM 53.6 °F - 41.0 °F 62% 30.39 in - Calm Calm - N/A   Clear
5:50 PM 50.0 °F - 39.2 °F 66% 30.39 in - Calm Calm - N/A   Clear
6:20 PM 48.2 °F - 39.2 °F 71% 30.39 in - Calm Calm - N/A   Clear
6:50 PM 46.4 °F 45.2 °F 39.2 °F 76% 30.39 in - NNW 3.5 mph - N/A   Clear
7:20 PM 46.4 °F 44.3 °F 39.2 °F 76% 30.42 in - NNW 4.6 mph - N/A   Clear
7:50 PM 44.6 °F 42.2 °F 39.2 °F 81% 30.42 in - NNW 4.6 mph - N/A   Clear
8:20 PM 42.8 °F - 39.2 °F 87% 30.42 in - Variable 2.3 mph - N/A   Unknown
8:50 PM 42.8 °F 41.1 °F 37.4 °F 81% 30.42 in - Variable 3.5 mph - N/A   Unknown
9:20 PM 42.8 °F 40.1 °F 37.4 °F 81% 30.42 in - NNW 4.6 mph - N/A   Unknown
9:50 PM 41.0 °F 39.0 °F 35.6 °F 81% 30.42 in - Variable 3.5 mph - N/A   Unknown
10:20 PM 41.0 °F 39.0 °F 35.6 °F 81% 30.42 in - Variable 3.5 mph - N/A   Unknown
10:50 PM 39.2 °F - 35.6 °F 87% 30.42 in - Calm Calm - N/A   Clear
11:20 PM 41.0 °F 37.1 °F 35.6 °F 81% 30.39 in - WNW 5.8 mph - N/A   Unknown
11:50 PM 41.0 °F - 35.6 °F 81% 30.39 in - Variable 2.3 mph - N/A   Unknown